SWA2775 KLAX-KLAS

Flight info

Callsign SWA2775
Flight time N/A
Altitude 29000
Route ORCKA5 MISEN RNDRZ4
Aircraft B737/M-SDE2E3FGHIRWXY/LB1

Departure

Time 2026-04-24 16:51
Airport Los Angeles International Airport (KLAX)

Arrival

Time N/A
Airport Harry Reid International Airport (KLAS)
Time Latitude Longitude Altitude Speed Heading
2026-04-24 16:09 33.94765 -118.40061 92 ft 0 kts 241°
2026-04-24 16:44 33.94771 -118.40048 92 ft 4 kts 245°
2026-04-24 16:45 33.94780 -118.40026 93 ft 4 kts 268°
2026-04-24 16:45 33.94773 -118.40009 91 ft 4 kts 353°
2026-04-24 16:45 33.94748 -118.40010 94 ft 2 kts
2026-04-24 16:45 33.94746 -118.40010 93 ft 0 kts
2026-04-24 16:48 33.94748 -118.40010 94 ft 2 kts
2026-04-24 16:48 33.94808 -118.40005 94 ft 13 kts 355°
2026-04-24 16:49 33.94859 -118.40070 93 ft 10 kts 319°
2026-04-24 16:49 33.94922 -118.40069 92 ft 9 kts 17°
2026-04-24 16:49 33.94984 -118.40062 93 ft 9 kts 354°
2026-04-24 16:49 33.95027 -118.40089 95 ft 6 kts 283°
2026-04-24 16:50 33.95026 -118.40117 97 ft 3 kts 263°
2026-04-24 16:50 33.95024 -118.40137 96 ft 0 kts 262°
2026-04-24 16:50 33.95014 -118.40224 99 ft 34 kts 263°
2026-04-24 16:51 33.94954 -118.40807 97 ft 104 kts 262°
2026-04-24 16:51 33.94839 -118.41908 97 ft 158 kts 262°
2026-04-24 16:51 33.94718 -118.43287 532 ft 165 kts 264°
2026-04-24 16:51 33.94598 -118.44641 1191 ft 168 kts 261°
2026-04-24 16:52 33.94459 -118.46019 1926 ft 162 kts 259°
2026-04-24 16:52 33.94284 -118.47347 2721 ft 160 kts 257°
2026-04-24 16:52 33.94091 -118.48642 3483 ft 160 kts 256°
2026-04-24 16:52 33.93875 -118.50049 3904 ft 186 kts 258°
2026-04-24 16:53 33.93643 -118.51704 4194 ft 215 kts 260°
2026-04-24 16:53 33.93414 -118.53611 4436 ft 246 kts 262°
2026-04-24 16:53 33.92929 -118.55646 4998 ft 262 kts 237°
2026-04-24 16:53 33.91541 -118.57066 5875 ft 268 kts 205°
2026-04-24 16:54 33.89702 -118.57509 6821 ft 276 kts 179°
2026-04-24 16:54 33.87831 -118.56939 7736 ft 284 kts 154°
2026-04-24 16:54 33.86299 -118.55403 8704 ft 293 kts 128°
2026-04-24 16:54 33.85466 -118.53149 9663 ft 302 kts 100°
2026-04-24 16:55 33.85585 -118.50609 10453 ft 314 kts 72°
2026-04-24 16:55 33.86719 -118.48270 10740 ft 339 kts 42°
2026-04-24 16:55 33.88698 -118.46686 11409 ft 346 kts 25°
2026-04-24 16:55 33.90840 -118.45291 12236 ft 354 kts 27°
2026-04-24 16:56 33.92888 -118.43592 13087 ft 364 kts 39°
2026-04-24 16:56 33.94599 -118.41293 13949 ft 373 kts 53°
2026-04-24 16:56 33.96048 -118.38683 14746 ft 381 kts 56°
2026-04-24 16:56 33.97505 -118.35955 15557 ft 388 kts 55°
2026-04-24 16:57 33.99004 -118.33223 16398 ft 394 kts 54°
2026-04-24 16:57 34.00548 -118.30472 17251 ft 399 kts 53°
2026-04-24 16:57 34.02130 -118.27683 18090 ft 406 kts 53°
2026-04-24 16:57 34.03737 -118.24858 18853 ft 412 kts 53°
2026-04-24 16:58 34.05362 -118.21996 19644 ft 416 kts 53°
2026-04-24 16:58 34.07006 -118.19095 20355 ft 422 kts 53°
2026-04-24 16:58 34.08676 -118.16144 21026 ft 429 kts 53°
2026-04-24 16:58 34.10369 -118.13149 21698 ft 436 kts 53°
2026-04-24 16:59 34.12089 -118.10105 22396 ft 442 kts 53°
2026-04-24 16:59 34.13830 -118.07019 23069 ft 448 kts 53°
2026-04-24 16:59 34.17350 -118.00775 24327 ft 457 kts 53°
2026-04-24 17:00 34.19147 -117.97580 24888 ft 462 kts 53°
2026-04-24 17:00 34.22796 -117.91084 25982 ft 471 kts 53°
2026-04-24 17:00 34.24645 -117.87789 26485 ft 477 kts 53°
2026-04-24 17:01 34.28386 -117.81110 27581 ft 485 kts 53°
2026-04-24 17:01 34.30282 -117.77719 28081 ft 489 kts 53°
2026-04-24 17:02 34.33501 -117.71958 28862 ft 496 kts 53°
2026-04-24 17:02 34.36089 -117.67351 28980 ft 502 kts 52°
2026-04-24 17:02 34.40117 -117.60568 28976 ft 492 kts 51°
2026-04-24 17:03 34.46208 -117.50486 29009 ft 497 kts 51°
2026-04-24 17:04 34.50266 -117.43691 29033 ft 498 kts 51°
2026-04-24 17:04 34.56319 -117.33482 29024 ft 496 kts 51°
2026-04-24 17:05 34.60339 -117.26688 29026 ft 495 kts 51°
2026-04-24 17:06 34.66348 -117.16513 28939 ft 494 kts 51°
2026-04-24 17:06 34.72347 -117.06326 28936 ft 494 kts 51°
2026-04-24 17:07 34.76342 -116.99525 28949 ft 494 kts 51°
2026-04-24 17:08 34.84297 -116.85944 28973 ft 495 kts 51°
2026-04-24 17:08 34.88281 -116.79123 28963 ft 495 kts 51°
2026-04-24 17:09 34.96730 -116.66070 29176 ft 488 kts 49°
2026-04-24 17:10 34.98680 -116.62640 29044 ft 495 kts 54°
2026-04-24 17:10 35.04197 -116.51889 28924 ft 498 kts 54°
2026-04-24 17:12 35.20436 -116.27228 26551 ft 474 kts 42°